This is the latest recevied weather packets stored in our database for station/object N5LSN. If no packets are shown the sender has not sent any weather packets the latest 10 day(s).
| Time | Temp. | Humidity | Pressure | Rain* | Wind** | Luminosity | Snow |
|---|---|---|---|---|---|---|---|
| 1777660240 | 18.33° C | 59% | 1018.2 hPa | 0 mm | - | 352 W/m² | - |
| 1777659937 | 18.33° C | 55% | 1017.9 hPa | 0 mm | - | 353 W/m² | - |
| 1777659634 | 18.33° C | 57% | 1017.8 hPa | 0 mm | - | 415 W/m² | - |
| 1777659331 | 18.33° C | 56% | 1017.8 hPa | 0 mm | - | 416 W/m² | - |
| 1777659027 | 18.33° C | 54% | 1017.8 hPa | 0 mm | - | 346 W/m² | - |
| 1777658726 | 18.33° C | 56% | 1017.7 hPa | 0 mm | - | 329 W/m² | - |
| 1777658421 | 18.89° C | 54% | 1018.1 hPa | 0 mm | - | 389 W/m² | - |
| 1777658118 | 18.89° C | 52% | 1018.3 hPa | 0 mm | - | 497 W/m² | - |
| 1777657815 | 18.89° C | 52% | 1018 hPa | 0 mm | - | 569 W/m² | - |
| 1777657512 | 17.78° C | 54% | 1018.5 hPa | 0 mm | - | 707 W/m² | - |
| 1777657210 | 18.33° C | 56% | 1018.6 hPa | 0 mm | - | 552 W/m² | - |
| 1777656907 | 17.78° C | 57% | 1018.8 hPa | 0 mm | - | 413 W/m² | - |
| 1777656604 | 18.33° C | 53% | 1018.6 hPa | 0 mm | - | 394 W/m² | - |
| 1777656299 | 17.78° C | 53% | 1018.6 hPa | 0 mm | - | 451 W/m² | - |
| 1777655995 | 17.78° C | 53% | 1019.1 hPa | 0 mm | - | 368 W/m² | - |
| 1777655691 | 17.78° C | 53% | 1018.8 hPa | 0 mm | - | 307 W/m² | - |
| 1777655388 | 17.78° C | 55% | 1019 hPa | 0 mm | - | 328 W/m² | - |
| 1777655084 | 17.78° C | 55% | 1018.9 hPa | 0 mm | - | 381 W/m² | - |
| 1777654782 | 17.78° C | 54% | 1019.1 hPa | 0 mm | - | 392 W/m² | - |
| 1777654480 | 17.78° C | 53% | 1018.7 hPa | 0 mm | - | 499 W/m² | - |
| 1777654177 | 18.33° C | 53% | 1018.8 hPa | 0 mm | - | 563 W/m² | - |
| 1777653875 | 18.33° C | 56% | 1019 hPa | 0 mm | - | 515 W/m² | - |
| 1777653571 | 17.78° C | 57% | 1018.8 hPa | 0 mm | - | 563 W/m² | - |
| 1777653267 | 17.78° C | 56% | 1018.6 hPa | 0 mm | - | 544 W/m² | - |
| 1777652964 | 17.22° C | 58% | 1018.6 hPa | 0 mm | - | 459 W/m² | - |
* Rain latest hour (hover to see other rain measurements)
** Current wind speed in m/s (hover to see current wind gust speed)